| time (UTC) | temp C | wind direction | speed KPH | gust KPH | rain 1hr cm | rain 24hr cm | rain mn cm | humidity % | barometer mb |
| 20260506114116 | 12 | 0.0 | 0.0 | 0.00 | 0.00 | 0.00 | 89 | 1020.2 | |
| 20260506113137 | 12 | 0.0 | 0.0 | 0.00 | 0.00 | 0.00 | 89 | 1020.1 | |
| 20260506112116 | 12 | 0.0 | 0.0 | 0.00 | 0.00 | 0.00 | 89 | 1020.2 | |
| 20260506111137 | 12 | 0.0 | 0.0 | 0.00 | 0.00 | 0.00 | 89 | 1020.1 | |
| 20260506110116 | 12 | 0.0 | 0.0 | 0.00 | 0.00 | 0.00 | 89 | 1019.9 | |
| 20260506105116 | 12 | 0.0 | 0.0 | 0.00 | 0.00 | 0.00 | 89 | 1019.8 | |
| 20260506104137 | 12 | 0.0 | 0.0 | 0.00 | 0.00 | 0.00 | 89 | 1019.7 | |
| 20260506103116 | 12 | 0.0 | 0.0 | 0.00 | 0.00 | 0.00 | 88 | 1019.7 | |
| 20260506102116 | 12 | 0.0 | 0.0 | 0.00 | 0.00 | 0.00 | 88 | 1019.6 | |
| 20260506101157 | 12 | 0.0 | 0.0 | 0.00 | 0.00 | 0.00 | 88 | 1019.5 | |
| 20260506100116 | 12 | 0.0 | 0.0 | 0.00 | 0.00 | 0.00 | 88 | 1019.2 | |
| 20260506095137 | 12 | 0.0 | 0.0 | 0.00 | 0.00 | 0.00 | 88 | 1019.2 | |
| 20260506094116 | 12 | 0.0 | 0.0 | 0.00 | 0.00 | 0.00 | 88 | 1019.3 | |
| 20260506093120 | 12 | 0.0 | 0.0 | 0.00 | 0.00 | 0.00 | 88 | 1019.3 | |
| 20260506092117 | 12 | 0.0 | 0.0 | 0.00 | 0.00 | 0.00 | 88 | 1019.4 | |
| 20260506091116 | 12 | 0.0 | 0.0 | 0.00 | 0.00 | 0.00 | 88 | 1019.4 | |
| 20260506090117 | 12 | 0.0 | 0.0 | 0.00 | 0.00 | 0.00 | 88 | 1019.5 | |
| 20260506085116 | 12 | 0.0 | 0.0 | 0.00 | 0.00 | 0.00 | 87 | 1019.4 | |
| 20260506084117 | 12 | 0.0 | 0.0 | 0.00 | 0.00 | 0.00 | 87 | 1019.5 | |
| 20260506083116 | 12 | 0.0 | 0.0 | 0.00 | 0.00 | 0.00 | 87 | 1019.5 | |
| 20260506082116 | 12 | 0.0 | 0.0 | 0.00 | 0.05 | 0.00 | 87 | 1019.6 | |
| 20260506081136 | 12 | 0.0 | 0.0 | 0.00 | 0.05 | 0.00 | 87 | 1019.5 | |
| 20260506080116 | 12 | 0.0 | 0.0 | 0.00 | 0.05 | 0.00 | 87 | 1019.3 | |
| 20260506073119 | 12 | 0.0 | 0.0 | 0.00 | 0.05 | 0.00 | 86 | 1019.1 | |
| 20260506072116 | 12 | 0.0 | 0.0 | 0.00 | 0.05 | 0.00 | 85 | 1019.1 | |
| 20260506071116 | 12 | 0.0 | 0.0 | 0.00 | 0.05 | 0.00 | 85 | 1019.0 | |
| 20260506070116 | 12 | 0.0 | 0.0 | 0.00 | 0.05 | 0.00 | 85 | 1018.9 | |
| 20260506062116 | 13 | 0.0 | 0.0 | 0.00 | 0.05 | 0.05 | 84 | 1018.8 | |
| 20260506061116 | 13 | 0.0 | 0.0 | 0.00 | 0.05 | 0.05 | 84 | 1018.7 | |
| 20260506060117 | 13 | 203 | 1.6 | 1.6 | 0.00 | 0.05 | 0.05 | 84 | 1018.5 |
| 20260506051117 | 13 | 0.0 | 0.0 | 0.00 | 0.05 | 0.05 | 83 | 1018.1 | |
| 20260506050137 | 13 | 0.0 | 1.6 | 0.00 | 0.05 | 0.05 | 83 | 1018.0 | |
| 20260506045117 | 13 | 0.0 | 0.0 | 0.00 | 0.05 | 0.05 | 83 | 1018.0 | |
| 20260506044117 | 14 | 0.0 | 0.0 | 0.00 | 0.05 | 0.05 | 82 | 1017.7 | |
| 20260506043116 | 14 | 0.0 | 0.0 | 0.00 | 0.05 | 0.05 | 82 | 1017.6 | |
| 20260506042116 | 14 | 0.0 | 0.0 | 0.00 | 0.05 | 0.05 | 81 | 1017.5 | |
| 20260506041141 | 14 | 0.0 | 0.0 | 0.00 | 0.05 | 0.05 | 80 | 1017.4 | |
| 20260506040117 | 14 | 0.0 | 0.0 | 0.00 | 0.05 | 0.05 | 80 | 1017.3 | |
| 20260506035117 | 15 | 0.0 | 0.0 | 0.00 | 0.05 | 0.05 | 80 | 1017.2 | |
| 20260506034116 | 15 | 0.0 | 0.0 | 0.00 | 0.05 | 0.05 | 79 | 1017.0 | |
| 20260506033116 | 15 | 0.0 | 0.0 | 0.00 | 0.05 | 0.05 | 79 | 1016.9 | |
| 20260506032116 | 15 | 0.0 | 0.0 | 0.00 | 0.05 | 0.05 | 79 | 1016.6 | |
| 20260506031121 | 15 | 0.0 | 0.0 | 0.00 | 0.05 | 0.05 | 78 | 1016.5 | |
| 20260506030137 | 15 | 0.0 | 0.0 | 0.00 | 0.05 | 0.05 | 78 | 1016.4 | |
| 20260506025117 | 15 | 0.0 | 0.0 | 0.00 | 0.05 | 0.05 | 78 | 1016.5 | |
| 20260506024121 | 15 | 0.0 | 0.0 | 0.00 | 0.05 | 0.05 | 77 | 1016.2 | |
| 20260506023116 | 15 | 0.0 | 0.0 | 0.00 | 0.05 | 0.05 | 77 | 1016.1 | |
| 20260506022116 | 16 | 0.0 | 0.0 | 0.00 | 0.05 | 0.05 | 76 | 1016.1 | |
| 20260506021137 | 16 | 0.0 | 1.6 | 0.00 | 0.08 | 0.05 | 75 | 1016.0 | |
| 20260506020137 | 16 | 0.0 | 1.6 | 0.00 | 0.08 | 0.05 | 75 | 1016.1 | |
| 20260506015120 | 16 | 180 | 1.6 | 1.6 | 0.00 | 0.08 | 0.05 | 75 | 1015.9 |
| 20260506014116 | 16 | 0.0 | 1.6 | 0.00 | 0.08 | 0.05 | 74 | 1015.9 | |
| 20260506013120 | 16 | 0.0 | 1.6 | 0.00 | 0.08 | 0.05 | 75 | 1015.9 | |
| 20260506012115 | 16 | 0.0 | 1.6 | 0.00 | 0.08 | 0.05 | 75 | 1015.8 | |
| 20260506011120 | 16 | 0.0 | 0.0 | 0.00 | 0.08 | 0.05 | 75 | 1015.7 | |
| 20260506010135 | 16 | 0.0 | 0.0 | 0.00 | 0.08 | 0.05 | 75 | 1015.7 | |
| 20260506005136 | 16 | 0.0 | 0.0 | 0.00 | 0.08 | 0.05 | 75 | 1015.8 | |
| 20260506004116 | 16 | 135 | 1.6 | 3.2 | 0.00 | 0.08 | 0.05 | 75 | 1015.7 |
| 20260506003140 | 17 | 0.0 | 0.0 | 0.00 | 0.08 | 0.05 | 75 | 1015.7 | |
| 20260506002116 | 17 | 0.0 | 0.0 | 0.00 | 0.10 | 0.05 | 75 | 1015.7 | |
| 20260506001115 | 17 | 0.0 | 1.6 | 0.00 | 0.10 | 0.05 | 75 | 1015.5 | |
| 20260506000119 | 17 | 0.0 | 1.6 | 0.00 | 0.10 | 0.05 | 75 | 1015.6 | |
| 20260505235136 | 17 | 0.0 | 0.0 | 0.00 | 0.13 | 0.05 | 74 | 1015.6 | |
| 20260505234115 | 17 | 270 | 3.2 | 6.4 | 0.00 | 0.15 | 0.05 | 74 | 1015.6 |
| 20260505233121 | 17 | 68 | 1.6 | 3.2 | 0.00 | 0.15 | 0.05 | 73 | 1015.6 |
| 20260505232119 | 17 | 0.0 | 0.0 | 0.00 | 0.18 | 0.05 | 73 | 1015.7 | |
| 20260505231117 | 17 | 270 | 1.6 | 3.2 | 0.00 | 0.18 | 0.05 | 73 | 1015.7 |
| 20260505230137 | 17 | 0 | 1.6 | 1.6 | 0.00 | 0.20 | 0.05 | 71 | 1015.7 |
| 20260505225217 | 17 | 293 | 1.6 | 3.2 | 0.00 | 0.25 | 0.05 | 71 | 1015.7 |
| 20260505224116 | 17 | 0.0 | 1.6 | 0.00 | 0.28 | 0.05 | 73 | 1015.7 | |
| 20260505223117 | 17 | 0.0 | 1.6 | 0.00 | 0.30 | 0.05 | 73 | 1015.7 | |
| 20260505222115 | 17 | 270 | 1.6 | 3.2 | 0.00 | 0.33 | 0.05 | 73 | 1015.9 |
| 20260505221116 | 17 | 0.0 | 1.6 | 0.00 | 0.38 | 0.05 | 74 | 1015.8 | |
| 20260505220115 | 17 | 0.0 | 1.6 | 0.00 | 0.41 | 0.05 | 74 | 1015.9 | |
| 20260505215116 | 17 | 0.0 | 1.6 | 0.00 | 0.43 | 0.05 | 74 | 1016.0 | |
| 20260505214115 | 17 | 270 | 1.6 | 3.2 | 0.00 | 0.43 | 0.05 | 75 | 1015.9 |
| 20260505213115 | 17 | 0.0 | 0.0 | 0.00 | 0.43 | 0.05 | 76 | 1016.0 | |
| 20260505212120 | 17 | 293 | 1.6 | 1.6 | 0.00 | 0.43 | 0.05 | 74 | 1015.9 |
| 20260505211120 | 17 | 0.0 | 0.0 | 0.00 | 0.43 | 0.05 | 74 | 1016.1 | |
| 20260505210116 | 17 | 0.0 | 0.0 | 0.00 | 0.43 | 0.05 | 76 | 1015.9 | |
| 20260505205117 | 17 | 270 | 3.2 | 3.2 | 0.00 | 0.43 | 0.05 | 74 | 1016.0 |
| 20260505204117 | 17 | 0.0 | 1.6 | 0.00 | 0.43 | 0.05 | 75 | 1016.1 | |
| 20260505203118 | 17 | 270 | 1.6 | 3.2 | 0.00 | 0.43 | 0.05 | 75 | 1016.0 |
| 20260505202117 | 17 | 0.0 | 1.6 | 0.00 | 0.43 | 0.05 | 76 | 1016.0 | |
| 20260505201119 | 16 | 135 | 1.6 | 3.2 | 0.00 | 0.43 | 0.05 | 78 | 1016.2 |
| 20260505200118 | 16 | 0.0 | 0.0 | 0.00 | 0.43 | 0.05 | 78 | 1016.4 | |
| 20260505195118 | 16 | 270 | 3.2 | 3.2 | 0.00 | 0.43 | 0.05 | 77 | 1016.3 |
| 20260505194118 | 16 | 0.0 | 0.0 | 0.00 | 0.43 | 0.05 | 77 | 1016.3 | |
| 20260505193117 | 16 | 0.0 | 1.6 | 0.00 | 0.43 | 0.05 | 80 | 1016.4 | |
| 20260505192117 | 15 | 90 | 3.2 | 3.2 | 0.00 | 0.43 | 0.05 | 80 | 1016.4 |
| 20260505191119 | 15 | 0.0 | 0.0 | 0.00 | 0.43 | 0.05 | 82 | 1016.5 | |
| 20260505190117 | 14 | 0.0 | 1.6 | 0.00 | 0.43 | 0.05 | 84 | 1016.5 | |
| 20260505185118 | 14 | 0.0 | 1.6 | 0.00 | 0.43 | 0.05 | 86 | 1016.4 | |
| 20260505184118 | 14 | 0.0 | 0.0 | 0.00 | 0.43 | 0.05 | 86 | 1016.3 | |
| 20260505183117 | 14 | 0.0 | 0.0 | 0.00 | 0.43 | 0.05 | 86 | 1016.3 | |
| 20260505182121 | 13 | 0.0 | 0.0 | 0.00 | 0.43 | 0.05 | 87 | 1016.3 | |
| 20260505181117 | 13 | 0.0 | 1.6 | 0.00 | 0.43 | 0.05 | 88 | 1016.3 | |
| 20260505180117 | 13 | 113 | 1.6 | 1.6 | 0.00 | 0.43 | 0.05 | 88 | 1016.2 |
| 20260505175117 | 13 | 135 | 1.6 | 1.6 | 0.00 | 0.43 | 0.05 | 89 | 1016.2 |
| 20260505174117 | 13 | 0.0 | 0.0 | 0.00 | 0.43 | 0.05 | 91 | 1016.1 | |
| 20260505173117 | 12 | 113 | 1.6 | 1.6 | 0.00 | 0.43 | 0.05 | 91 | 1016.0 |
| 20260505172117 | 12 | 0.0 | 1.6 | 0.00 | 0.43 | 0.05 | 92 | 1015.9 | |
| 20260505171138 | 12 | 0.0 | 1.6 | 0.00 | 0.43 | 0.05 | 92 | 1016.0 | |
| 20260505170137 | 12 | 0.0 | 1.6 | 0.00 | 0.43 | 0.05 | 93 | 1016.0 | |
| 20260505165117 | 12 | 158 | 1.6 | 3.2 | 0.00 | 0.43 | 0.05 | 93 | 1016.1 |
| 20260505164121 | 12 | 0.0 | 1.6 | 0.00 | 0.43 | 0.05 | 93 | 1016.0 | |
| 20260505163117 | 12 | 0.0 | 0.0 | 0.00 | 0.43 | 0.05 | 93 | 1016.0 | |
| 20260505162146 | 12 | 0.0 | 1.6 | 0.00 | 0.43 | 0.05 | 92 | 1015.9 | |
| 20260505161117 | 12 | 0.0 | 0.0 | 0.00 | 0.43 | 0.05 | 93 | 1015.8 | |
| 20260505160137 | 11 | 0.0 | 0.0 | 0.00 | 0.43 | 0.05 | 93 | 1015.9 | |
| 20260505153117 | 11 | 0.0 | 0.0 | 0.00 | 0.43 | 0.05 | 93 | 1015.8 | |
| 20260505152137 | 11 | 0.0 | 0.0 | 0.00 | 0.43 | 0.05 | 92 | 1015.8 | |
| 20260505151118 | 11 | 0.0 | 0.0 | 0.00 | 0.43 | 0.05 | 92 | 1015.8 | |
| 20260505150116 | 11 | 0.0 | 0.0 | 0.00 | 0.43 | 0.05 | 92 | 1015.5 | |
| 20260505140117 | 10 | 0.0 | 0.0 | 0.00 | 0.43 | 0.05 | 92 | 1015.3 | |
| 20260505130121 | 10 | 0.0 | 0.0 | 0.00 | 0.43 | 0.05 | 92 | 1014.7 | |
| 20260505124117 | 11 | 0.0 | 0.0 | 0.00 | 0.43 | 0.05 | 92 | 1014.8 | |
| 20260505123136 | 11 | 0.0 | 0.0 | 0.00 | 0.43 | 0.05 | 92 | 1014.8 | |
| 20260505122116 | 11 | 0.0 | 0.0 | 0.00 | 0.43 | 0.05 | 92 | 1014.8 | |
| 20260505121136 | 11 | 0.0 | 0.0 | 0.00 | 0.43 | 0.05 | 92 | 1014.8 | |
| 20260505120116 | 11 | 0.0 | 0.0 | 0.00 | 0.43 | 0.05 | 92 | 1014.8 | |
| 20260505115116 | 11 | 0.0 | 0.0 | 0.00 | 0.43 | 0.05 | 92 | 1014.7 |